This demonstration page uses our WeatherBlox Daily Observations layout. Learn more.

Left ArrowRight Arrow

34.74481, -87.66753

Hourly Observations for June 11, 2018

Temp ( °F °C ) Dew Point ( °F °C ) Humidity (%) Winds ( mph kmh ) Pressure ( in mb ) Visibility ( mi km ) Precip ( " mm )
12:53 am 00:53 Clear 77 25 67 19.4 71 71 S 7 11 29.90 1013 10 16 0.00 0.00
1:53 am 01:53 Clear 75 23.9 68 20 79 79 S 3 6 29.89 1012 10 16 0.00 0.00
2:53 am 02:53 Clear 75 23.9 68 20 79 79 S 6 9 29.90 1013 10 16 0.00 0.00
3:53 am 03:53 Clear 74 23.3 68 20 82 82 S 3 6 29.90 1012 10 16 0.00 0.00
4:53 am 04:53 Clear 72 22.2 68 20 87 87 S 3 6 29.91 1013 10 16 0.00 0.00
5:53 am 05:53 Sunny 72 22.2 69 20.6 91 91 S 3 6 29.92 1013 10 16 0.00 0.00
6:53 am 06:53 Sunny 73 22.8 69 20.6 87 87 SSW 6 9 29.94 1014 10 16 0.00 0.00
7:53 am 07:53 Sunny 78 25.6 70 21.1 76 76 W 8 13 29.96 1014 10 16 0.00 0.00
8:53 am 08:53 Sunny 80 26.7 70 21.1 71 71 W 12 19 29.96 1015 10 16 0.00 0.00
9:53 am 09:53 Mostly Sunny 83 28.3 70 21.1 65 65 W 10 17 29.96 1015 10 16 0.00 0.00
10:53 am 10:53 Sunny 85 29.4 70 21.1 61 61 W 6 9 29.96 1014 10 16 0.00 0.00
11:53 am 11:53 Mostly Sunny 86 30 69 20.6 57 57 S 7 11 29.94 1014 10 16 0.00 0.00
12:53 pm 12:53 Mostly Sunny 88 31.1 68 20 52 52 WSW 8 13 29.93 1014 10 16 0.00 0.00
1:53 pm 13:53 Mostly Cloudy 89 31.7 69 20.6 52 52 VRB 6 9 29.89 1012 10 16 0.00 0.00
2:53 pm 14:53 Mostly Sunny 91 32.8 68 20 47 47 S 8 13 29.89 1012 10 16 0.00 0.00
3:53 pm 15:53 Mostly Sunny 92 33.3 66 18.9 43 43 W 7 11 29.87 1012 10 16 0.00 0.00
4:53 pm 16:53 Sunny 91 32.8 67 19.4 45 45 W 12 19 29.85 1011 10 16 0.00 0.00
5:53 pm 17:53 Sunny 87 30.6 69 20.6 55 55 SSW 10 17 29.85 1011 10 16 0.00 0.00
6:53 pm 18:53 Sunny 84 28.9 69 20.6 61 61 SW 7 11 29.89 1012 10 16 0.00 0.00
7:53 pm 19:53 Sunny 81 27.2 69 20.6 67 67 S 5 7 29.91 1013 10 16 0.00 0.00
8:53 pm 20:53 Clear 78 25.6 70 21.1 76 76 S 7 11 29.91 1013 10 16 0.00 0.00
9:53 pm 21:53 Clear 77 25 70 21.1 79 79 SSW 9 15 29.94 1014 10 16 0.00 0.00
10:53 pm 22:53 Clear 76 24.4 71 21.7 85 85 SSW 6 9 29.94 1014 10 16 0.00 0.00
11:53 pm 23:53 Clear 74 23.3 70 21.1 88 88 Calm 29.94 1014 10 16 0.00 0.00

Powered by AerisWeather